Weather in Krasnoye

Russia / Khabarovsk Krai     53˚06′55″N   140˚51′30″E
temp.,
°C
wind,
m/s
gust,
m/s
humid.,
%
clouds,
%
prec.,
mm/h
press.,
hPa
HPBL,
m
17 january, sun
sun1701:00−30˚w22900 0.0 102019
04:00−30˚w22900 0.0 101919
07:00−31˚w22920 0.0 101920
10:00−29˚w22920 0.0 101951
13:00−25˚wnw23900 0.0 1019242
16:00−26˚wnw22940 0.0 101842
19:00−30˚w229636 0.0 101920
22:00−31˚w229554 0.0 101920
18 january, mon
mon1801:00−31˚w229454 0.0 101921
04:00−32˚w229461 0.0 101920
07:00−33˚w229435 0.0 101920
10:00−31˚w229432 0.0 101959
13:00−27˚wnw239084 0.0 1018237
16:00−28˚wnw229488 0.0 101778
19:00−32˚w229361 0.0 101819
22:00−31˚w228672 0.0 101725
19 january, tue
tue1901:00−32˚w228745 0.0 101631
04:00−32˚w368222 0.0 1015128
07:00−33˚wsw238435 0.0 101541
10:00−30˚w239162 0.0 1015137
13:00−26˚wnw378661 0.0 1014492
16:00−27˚w249238 0.0 1014175
19:00−31˚wsw22940 0.0 101628
22:00−31˚w23950 0.0 101639
20 january, wed
wed2001:00−31˚w33960 0.0 101746
04:00−31˚w33950 0.0 101841
07:00−32˚w22930 0.0 101831
10:00−30˚w23910 0.0 101996
13:00−25˚w24860 0.0 1018267
16:00−25˚wnw22900 0.0 101846
19:00−30˚w229016 0.0 101919
22:00−30˚w228936 0.0 101819
21 january, thu
thu2101:00−29˚w229083 0.0 101826
04:00−28˚w229192 0.0 101836
07:00−28˚w2291100 0.0 101751
10:00−27˚w3988100 0.0 1018469
13:00−25˚w3787100 0.0 1017561
16:00−24˚w3891100 0.1 1017575
19:00−25˚w3996100 0.1 1018491
22:00−26˚w3896100 0.1 1019415